マクノート彗星

353P/McNaught (2026)

English version
Home page
Updated on March 25, 2025

---------------------------------------------------------------------

・ プロフィール

・ 軌道要素

Epoch 2026 July 19.0 TT = JDT 2461240.5
T 2026 July 1.39917 TT                                  MPCW
q   2.2117887            (2000.0)            P               Q
n   0.11576637     Peri.  230.52511     +0.91092167     +0.07417427
a   4.1694724      Node   121.45670     -0.02640196     +0.99217015
e   0.4695279      Incl.   28.41015     -0.41173371     +0.10048172
P   8.51
From 108 observations 2008 May 30-2018 Jan. 4, mean residual 0".5.

・ 光度変化

        m1 = 14.0 + 5 logΔ + 10.0 log r

---------------------------------------------------------------------

軌道要素はM.P.E.C. 2018-B155に掲載されたものです。
光度グラフはComet for Windowsで作成したものです。

---------------------------------------------------------------------

Copyright(C) Seiichi Yoshida (comet@aerith.net). All rights reserved.